Temp
9 9 9 9 9 9 9 8 8 8 9 8 8 8 8 8 8 8 8 8 8 9 9 9 9 9 10 11 13 19 18 18 18 17 17 17 16 17 16 16 18 17 19 19 19 19 19
9 9 9 8 8 8 8 8 8 8 8 8 8 8 8 7 7 8 8 8 8 9 9 9 9 9 10 10 17 18 18 17 18 16 17 16 17 17 18 18 17 18 19 19 19 20 19
8 8 8 8 8 8 8 8 8 8 8 8 8 7 7 7 7 8 8 10 10 10 9 10 10 9 10 11 17 18 18 17 17 17 16 17 19 18 18 17 19 19 18 17 17 19 19
8 8 8 8 8 8 8 8 7 8 8 8 8 7 7 7 8 8 11 12 12 12 12 11 10 10 10 15 16 17 16 16 17 17 17 18 19 17 17 17 17 17 16 16 19 19 19
8 8 8 7 7 7 8 8 7 7 7 8 7 7 7 7 8 8 11 13 14 14 12 11 10 10 12 16 16 17 17 17 17 17 18 18 18 16 17 16 14 14 15 15 17 18 18
8 8 7 7 8 8 8 8 8 8 8 8 7 7 7 7 9 9 10 13 13 13 12 11 12 11 13 16 16 17 17 17 16 16 16 16 14 13 13 13 14 15 14 15 16 18 17
7 7 7 7 8 8 8 7 8 8 7 7 7 7 7 8 9 10 10 11 8 10 9 13 13 12 14 15 16 16 17 17 16 14 13 13 12 13 14 16 17 15 15 15 16 18 18
7 7 7 7 7 7 7 7 7 7 7 7 7 7 7 8 9 10 10 8 8 8 7 10 9 10 11 12 13 15 17 14 14 13 13 13 13 14 15 15 15 16 15 15 17 18 17
7 7 7 7 7 7 7 7 7 7 7 6 6 7 8 8 9 9 8 9 9 9 7 9 12 13 14 12 13 13 15 15 14 13 13 13 14 15 15 15 15 15 15 16 16 18 17
7 7 7 7 7 7 6 6 6 6 6 6 6 6 7 7 9 8 9 8 9 9 6 12 13 14 14 14 13 15 15 15 14 13 13 13 15 15 15 15 16 15 17 17 16 15 15
7 7 6 6 6 6 6 6 6 6 6 6 6 7 7 7 7 7 7 8 8 8 11 15 13 15 14 14 14 15 15 14 13 14 14 14 15 14 15 16 16 16 17 16 15 14 14
6 6 6 6 6 6 6 6 6 6 6 6 7 7 6 8 7 8 7 8 8 10 9 14 13 13 12 13 14 14 13 14 14 13 13 13 14 14 15 16 16 17 16 15 15 12 12
6 6 6 6 6 6 6 6 6 6 6 6 7 7 7 7 7 8 8 6 8 9 13 10 10 11 11 12 13 13 12 11 11 10 10 12 13 15 15 14 15 15 13 11 11 11 13
6 6 6 6 6 6 5 6 6 5 5 6 6 7 8 7 8 8 7 7 10 10 9 10 9 10 11 9 9 10 9 9 9 7 8 10 11 13 14 14 14 12 14 12 13 13 14
5 6 5 6 6 5 5 5 5 5 6 6 6 8 8 8 7 8 5 6 7 7 9 9 9 8 7 9 8 8 8 9 7 7 6 8 10 11 13 15 14 13 12 15 12 13 11
5 6 6 6 5 5 5 5 5 5 5 6 5 6 7 8 8 7 5 8 7 8 8 8 6 7 6 6 6 6 7 9 8 7 8 7 7 10 12 12 12 14 14 12 13 11 12
5 5 5 5 5 5 5 5 5 5 5 6 6 3 8 8 8 4 4 6 7 8 8 7 7 6 6 5 5 6 7 8 7 8 8 8 7 8 11 11 10 10 10 10 10 11 12
5 5 5 5 5 5 5 5 5 5 5 6 4 4 9 7 4 2 3 5 7 7 7 7 7 7 6 6 5 5 6 7 7 7 5 6 5 6 7 9 11 10 7 7 9 10 10
5 5 5 5 5 4 4 4 4 4 4 4 2 2 8 7 3 2 4 5 6 6 6 7 6 7 6 5 4 5 5 8 7 6 5 5 6 5 7 9 8 6 7 8 7 7 9
5 5 5 4 4 4 4 4 4 5 4 4 1 2 2 2 3 3 2 3 4 6 6 6 6 6 4 4 5 3 5 6 6 6 8 6 1 5 5 6 6 6 7 7 7 6 6
4 4 4 4 4 4 4 4 4 4 5 5 0 3 3 1 2 1 2 3 4 4 6 5 4 5 4 4 4 4 5 5 6 7 6 4 1 4 5 5 5 5 2 2 4 0 4
4 4 4 4 4 4 4 4 4 4 5 5 -0 -0 -0 3 1 2 3 -0 3 4 4 4 3 4 4 3 4 4 4 3 3 4 4 1 2 3 4 6 6 2 -1 -0 -3 -4 0
4 4 4 4 4 4 3 3 3 3 4 4 4 4 3 2 2 -2 0 3 3 3 4 5 4 2 3 4 3 3 4 3 3 3 3 3 2 1 3 6 4 -3 -5 -4 -6 -7 -5
4 4 4 4 4 3 3 3 3 3 3 3 4 4 2 0 0 2 3 3 3 3 2 3 3 -1 3 3 2 1 0 -0 1 3 3 3 3 3 0 4 3 -5 -7 -7 -8 -8 -8
4 3 3 3 3 3 2 2 2 2 3 3 3 3 2 1 -0 2 2 2 1 1 1 2 3 3 2 1 -2 -2 0 1 2 2 0 2 3 3 4 0 -4 -5 -9 -10 -9 -9 -9
3 3 3 3 3 3 3 2 2 2 2 2 3 4 2 2 -0 3 2 2 1 -3 -2 2 2 1 1 -1 -1 -2 0 2 2 2 0 -1 -3 1 -1 1 -2 -9 -11 -11 -11 -11 -10
3 3 3 3 3 2 2 2 2 2 1 2 2 3 2 2 1 2 2 2 1 -1 -2 -3 -2 -2 0 -2 -2 -2 -1 -0 -0 -3 -5 -6 -10 -7 -4 -8 -12 -12 -12 -11 -9 -12 -11
3 2 3 2 2 2 3 3 3 2 1 1 2 3 2 2 2 0 -1 -1 -1 -1 -2 -4 -2 -3 -4 -3 -1 -3 -4 -4 -6 -9 -9 -13 -14 -12 -11 -9 -8 -13 -12 -13 -13 -12 -12
2 2 2 2 2 2 2 2 2 2 1 1 2 1 2 1 -2 -3 -5 -5 -5 -5 -3 -4 -2 -1 -2 -1 -4 -5 -5 -6 -5 -7 -10 -12 -13 -11 -13 -13 -14 -14 -14 -13 -13 -13 -13
Height
837 835 833 831 828 826 823 820 816 812 808 803 799 795 789 784 778 772 767 761 756 751 749 747 747 747 747 745 724 711 711 714 715 719 721 723 730 734 738 735 733 732 719 717 715 717 714
837 835 834 831 828 825 822 819 815 811 807 803 798 792 787 780 775 769 762 755 750 745 742 741 741 744 746 744 709 708 710 712 712 715 718 721 721 723 727 727 730 718 717 716 713 709 710
838 836 834 831 828 825 822 818 814 810 806 802 797 791 786 779 772 764 756 748 742 738 735 733 734 738 739 714 707 707 708 709 711 711 714 716 717 720 720 727 716 714 719 715 712 708 707
838 836 834 831 828 825 822 818 814 810 806 801 796 790 783 775 767 758 749 742 735 731 729 729 728 735 726 705 705 705 707 708 711 712 714 715 717 719 719 718 718 721 720 722 703 702 701
839 837 834 831 828 825 821 818 814 809 804 799 794 788 781 773 764 755 746 736 730 727 727 729 730 729 717 704 703 702 703 706 709 711 712 713 713 717 716 726 734 727 722 720 713 698 700
839 836 834 831 828 825 821 817 813 808 803 798 792 786 778 770 761 752 744 732 729 727 725 727 727 732 712 703 700 700 702 705 709 710 714 715 717 719 722 731 719 720 724 715 712 697 698
839 836 834 831 828 824 820 816 812 807 802 797 791 784 776 768 760 752 741 733 738 733 730 724 717 713 704 703 701 700 700 704 706 711 719 715 721 709 705 699 698 707 709 706 697 690 692
840 838 835 831 827 823 819 815 811 806 802 796 790 783 775 767 759 754 749 748 756 756 737 717 715 715 706 707 707 700 701 708 709 713 714 717 703 700 699 701 702 702 705 695 690 688 691
840 838 834 831 827 823 819 815 810 805 801 795 789 782 774 765 757 755 757 757 755 753 746 716 707 703 698 701 702 701 698 703 707 711 709 706 692 688 697 696 699 694 695 688 691 685 681
840 837 834 830 826 823 819 814 810 804 799 794 788 781 775 766 760 758 755 756 754 751 753 709 703 702 701 698 701 692 691 695 700 701 705 700 688 685 691 687 690 688 677 682 685 693 696
840 836 833 829 826 822 818 814 809 804 798 793 786 780 774 769 768 764 762 755 753 752 747 700 705 702 702 705 701 693 692 695 694 693 693 683 676 683 678 667 676 669 673 678 681 689 692
839 836 833 829 825 821 818 814 809 804 797 789 783 778 773 768 767 764 758 753 751 750 754 708 711 716 714 706 700 697 697 695 694 695 690 680 677 678 672 666 666 663 671 675 678 691 696
838 835 832 828 825 821 817 813 808 803 797 789 780 775 771 769 767 762 756 754 756 754 718 734 735 731 723 715 704 708 706 702 704 708 702 683 674 669 672 675 670 669 684 703 704 699 668
837 834 831 828 825 821 818 814 809 803 796 788 780 774 771 771 768 761 755 757 750 745 755 745 745 731 723 736 731 725 723 725 720 726 715 700 684 669 664 664 663 670 663 676 664 668 662
836 833 831 828 825 821 818 814 809 803 795 788 781 775 773 771 768 763 762 768 770 768 761 753 743 745 747 738 742 737 734 725 733 736 737 711 690 679 667 658 661 665 667 648 667 655 673
835 833 830 827 824 820 817 813 807 802 794 788 784 781 776 772 767 763 769 763 770 765 762 756 764 754 760 754 751 749 739 721 730 732 730 724 711 683 667 667 663 652 653 663 658 667 660
834 831 829 826 822 819 816 812 807 801 796 789 785 788 777 773 768 773 786 778 770 766 764 764 762 761 757 758 755 748 741 728 730 723 723 720 717 705 679 674 678 673 672 670 668 659 647
834 831 828 825 822 819 815 811 807 803 796 790 792 794 779 775 785 788 790 782 775 770 765 761 760 755 757 753 754 750 743 733 727 728 730 724 722 709 705 682 675 677 696 692 667 665 654
833 830 828 825 822 819 815 811 807 803 800 798 800 797 782 781 798 798 789 782 777 773 769 763 762 756 755 755 756 744 740 725 726 729 730 726 719 727 704 684 687 702 696 691 695 689 670
833 831 828 826 823 819 815 811 808 804 802 800 802 805 794 789 793 796 796 787 781 772 768 766 760 756 760 753 746 749 740 729 727 726 718 721 742 726 725 713 705 703 696 694 693 693 696
833 831 829 827 823 819 816 813 809 806 803 802 806 806 805 809 799 800 797 789 784 779 768 767 764 762 762 757 749 742 737 732 720 717 718 726 742 725 713 711 709 706 726 726 710 744 723
832 831 829 826 822 820 817 813 810 807 804 803 812 813 809 801 801 798 791 800 786 779 779 771 768 760 756 758 754 744 742 735 735 719 722 733 729 722 716 702 700 728 746 742 761 770 749
832 831 828 825 823 820 817 814 813 810 808 806 805 804 802 799 797 807 798 788 782 781 769 767 763 763 757 748 746 741 734 726 727 727 723 722 725 734 716 694 705 762 784 775 791 802 790
832 830 828 827 823 819 817 815 813 811 808 807 804 803 803 804 800 793 785 783 781 781 777 766 761 769 752 744 738 732 728 726 727 720 716 714 714 712 731 705 716 794 802 795 804 809 808
833 830 827 825 822 819 816 814 811 808 807 804 802 802 800 795 794 787 783 781 779 777 775 767 758 756 750 748 754 751 734 727 721 722 725 714 711 712 701 735 778 790 813 821 814 822 821
832 829 826 823 821 818 815 812 810 808 805 802 800 797 795 791 789 781 781 777 780 785 778 763 759 753 751 754 755 765 749 730 728 724 727 730 739 723 734 725 757 818 824 823 823 836 829
833 829 825 823 820 818 815 812 810 807 803 800 795 794 792 786 781 778 777 776 777 779 780 776 770 764 757 763 766 763 751 743 747 766 775 777 795 786 766 800 830 832 825 817 815 847 836
831 827 825 822 819 817 815 812 808 805 802 798 791 788 788 782 777 780 784 786 786 787 786 786 775 772 775 773 765 771 772 770 786 812 813 836 840 830 820 804 810 837 825 834 847 841 839
828 825 824 821 817 814 812 808 805 802 799 795 789 787 785 784 792 793 796 798 798 797 794 790 786 780 778 773 781 782 786 788 789 804 825 836 845 837 846 852 854 850 848 847 846 844 841
Wind_Speed
15 16 17 17 18 19 20 20 21 22 23 24 24 26 28 29 29 30 31 33 32 30 27 24 20 13 6 5 11 19 26 7 20 21 21 13 9 11 7 7 14 14 19 7 18 14 14
15 16 16 17 18 18 19 20 22 23 22 24 25 27 29 31 31 33 35 35 33 32 28 24 18 9 5 10 9 10 11 12 16 23 19 8 9 10 7 9 8 6 19 20 18 21 10
15 15 16 17 18 19 20 21 22 23 23 25 26 29 31 33 34 37 37 35 34 31 26 19 12 14 9 18 4 4 8 14 17 23 6 19 14 5 4 11 13 7 12 10 8 5 7
14 15 17 17 19 20 21 21 22 23 24 25 27 30 33 35 39 42 33 36 35 21 12 8 4 13 8 6 7 14 15 12 15 19 19 10 11 5 5 4 8 4 5 7 6 6 7
15 16 17 18 19 20 21 21 23 24 25 26 28 31 34 36 44 43 33 36 18 7 4 4 9 9 8 5 5 13 20 13 15 15 13 11 3 6 0 2 6 4 11 7 6 8 7
15 16 18 19 20 21 21 22 23 24 25 28 29 32 35 40 46 34 31 24 9 2 1 6 6 3 5 3 3 1 12 13 4 4 2 4 4 5 5 5 19 13 8 7 8 7 10
16 17 17 18 19 20 21 22 23 25 26 28 30 35 36 43 44 24 31 8 6 4 7 5 4 6 6 8 1 3 10 7 5 5 8 6 6 15 19 23 14 6 9 11 6 9 5
16 17 18 19 20 21 23 24 24 26 27 29 31 37 39 43 37 16 15 5 4 6 13 13 18 17 25 13 5 5 8 6 6 9 4 4 21 15 13 13 17 18 18 23 18 13 9
16 17 18 20 21 21 23 23 24 26 28 29 30 35 40 41 22 17 12 10 11 13 7 9 6 5 2 9 6 6 11 4 6 7 11 15 9 17 15 15 18 21 22 21 18 4 7
16 18 18 20 21 22 24 24 25 26 28 30 31 33 37 37 5 25 1 26 21 9 4 5 1 1 2 2 3 8 11 8 7 13 12 14 20 17 15 22 16 21 17 14 11 5 10
16 18 19 20 21 22 23 24 25 27 29 31 34 34 35 23 18 9 20 28 21 3 5 3 3 1 2 2 7 1 1 4 15 8 3 9 4 11 23 28 18 18 8 10 6 5 0
16 17 19 19 21 22 23 25 25 26 29 33 34 36 30 20 17 12 25 26 5 0 6 6 5 11 15 8 4 2 2 2 2 7 17 21 10 6 5 5 18 7 3 3 3 3 9
16 16 18 19 20 21 22 24 25 26 28 33 37 35 21 20 8 25 23 6 2 3 11 10 11 15 16 8 6 11 7 3 5 3 6 6 16 19 9 6 4 2 5 1 3 5 12
15 16 17 18 20 20 21 23 24 26 29 35 35 24 16 8 17 26 12 4 1 8 8 13 14 13 4 17 14 15 10 11 13 13 9 6 12 8 7 17 17 12 16 7 15 8 11
14 16 17 18 19 20 21 22 24 26 31 33 29 20 10 16 20 24 3 4 3 6 14 13 13 7 7 22 8 8 9 6 9 11 5 6 6 13 19 10 10 4 10 20 6 6 1
15 16 17 18 18 19 20 21 22 24 30 30 21 12 8 24 22 10 4 5 5 9 16 9 6 3 13 10 6 11 5 5 11 7 7 7 10 8 10 6 10 15 2 3 8 6 14
15 15 16 16 17 18 19 20 21 23 27 26 7 4 10 27 7 4 4 4 5 10 13 10 14 9 8 4 3 5 6 13 1 11 8 7 5 14 5 3 2 5 4 4 3 4 6
14 15 16 16 17 17 18 20 20 21 26 21 6 3 14 21 5 3 3 7 8 10 12 7 7 7 6 13 6 8 6 5 7 3 8 2 4 4 10 21 14 4 7 9 6 6 3
13 14 15 16 16 17 19 20 19 20 20 9 3 3 7 6 4 4 5 5 3 11 11 6 7 7 11 10 6 3 5 4 10 3 3 3 3 7 9 5 8 4 5 7 5 5 6
13 14 15 16 17 18 19 18 19 19 17 9 2 4 4 4 1 3 5 4 8 7 8 8 12 6 12 16 7 5 8 8 9 9 16 10 3 6 9 16 6 7 7 9 5 3 7
13 14 15 16 16 17 17 19 19 19 16 7 3 2 1 5 3 6 3 4 12 9 2 6 4 9 14 6 10 3 9 11 13 13 2 2 5 4 13 9 14 7 11 14 6 9 2
13 13 14 15 16 16 17 18 19 18 14 3 2 2 3 7 6 5 5 3 8 9 8 7 10 18 14 9 11 18 13 13 10 7 3 1 7 3 11 15 15 5 17 12 16 12 7
12 13 14 15 16 16 17 17 16 16 12 3 2 1 2 4 3 2 3 6 11 13 7 10 13 11 10 10 6 14 18 20 16 13 15 6 3 3 8 11 2 6 15 14 16 17 6
13 13 14 15 15 17 17 16 16 14 9 5 6 2 2 4 2 4 7 8 12 10 10 12 6 2 8 10 15 10 12 11 7 11 10 3 2 3 4 3 2 6 9 16 19 17 16
13 14 14 14 15 17 17 16 15 15 14 13 9 3 2 4 4 8 4 7 7 7 6 11 6 5 10 8 4 7 5 5 2 0 5 4 2 3 2 4 7 3 8 6 7 8 13
14 15 16 14 12 14 16 15 16 17 17 14 15 13 3 3 5 2 7 3 5 4 4 5 6 12 4 2 2 1 3 3 4 7 7 8 9 1 3 2 3 2 15 9 5 2 10
14 14 15 11 11 13 16 17 16 17 19 18 10 11 6 3 3 1 3 3 2 2 3 4 9 7 5 2 2 2 3 1 3 4 7 5 5 4 5 4 2 12 16 9 3 1 8
13 14 14 14 15 16 17 18 19 19 19 21 16 13 10 3 2 7 8 6 4 3 3 5 6 4 4 6 4 3 2 3 5 4 5 4 5 4 4 3 1 18 4 5 4 7 8
14 15 16 17 17 18 19 20 20 18 18 19 6 15 15 3 4 23 24 18 8 5 3 3 2 4 3 3 3 2 3 5 6 2 7 4 3 2 4 2 1 5 8 6 6 5 9
Wind_Direction
28 25 20 16 13 10 5 2 358 356 355 353 351 346 342 338 333 328 323 319 315 311 307 301 297 296 300 229 243 247 297 232 177 190 192 188 182 189 198 208 237 233 249 245 243 252 258
27 24 19 15 11 9 6 4 2 359 355 352 349 343 341 337 333 329 323 318 315 311 305 300 286 258 227 254 254 260 239 191 189 182 201 198 201 203 217 245 194 236 238 251 252 255 248
24 19 15 12 10 8 6 4 1 1 357 352 347 343 341 337 334 330 325 323 321 315 305 301 289 201 225 246 224 210 206 208 202 195 172 220 241 190 195 262 280 280 275 273 225 224 229
22 16 11 10 8 6 4 1 358 355 352 348 345 342 339 336 336 334 332 329 328 318 304 296 199 180 247 271 274 255 206 198 200 208 219 229 255 236 191 282 337 289 277 255 222 212 248
20 12 8 6 3 360 358 355 353 350 346 343 342 340 338 336 339 336 334 332 334 329 356 156 132 183 256 307 229 252 234 195 206 221 212 229 188 207 139 178 303 238 255 246 280 237 239
14 9 1 357 356 354 350 348 347 344 342 341 339 339 339 341 342 338 338 335 348 24 252 200 277 237 259 261 142 353 214 201 176 154 178 214 208 187 154 158 228 224 247 249 227 248 204
9 4 358 357 355 353 353 351 348 345 343 342 340 340 340 342 343 342 352 355 10 350 13 237 248 271 327 2 339 239 204 193 166 147 192 210 205 211 206 211 229 225 232 237 229 243 254
3 358 357 355 354 355 353 350 348 346 343 342 342 340 342 342 343 355 15 72 146 278 292 280 251 259 259 258 281 269 192 171 180 208 168 245 234 222 215 217 226 234 250 256 269 265 251
0 356 356 356 355 355 355 351 349 347 343 344 343 339 342 343 345 359 14 43 351 332 279 297 221 231 305 161 216 228 162 195 219 224 210 220 217 215 214 221 224 232 232 245 249 252 261
357 357 355 357 357 355 355 352 350 347 345 343 341 339 343 344 2 342 42 341 340 334 317 265 186 3 26 61 239 219 203 179 215 215 222 249 238 242 217 229 217 240 228 251 260 254 266
355 357 358 357 354 355 354 354 352 349 344 341 340 340 341 349 304 330 327 323 327 265 352 55 65 287 68 282 314 1 59 227 247 248 179 232 244 226 228 230 213 245 195 214 211 219 212
359 357 356 357 356 356 354 353 353 349 343 339 339 340 342 347 328 312 327 326 326 1 259 22 47 14 355 317 285 0 330 183 284 261 254 261 278 302 230 265 226 236 155 153 152 145 245
360 358 357 358 357 355 355 354 353 349 344 340 339 341 345 336 322 330 329 338 15 158 343 11 350 332 323 329 345 5 326 207 220 244 246 276 256 258 263 274 315 154 112 235 254 209 240
358 358 356 357 357 357 358 356 354 351 346 348 345 356 2 20 344 349 342 29 181 22 13 342 333 317 296 22 349 346 359 343 40 14 318 293 289 207 217 215 214 204 192 187 228 215 244
358 359 356 355 351 351 352 350 348 349 347 350 348 360 7 349 347 339 28 53 45 1 339 330 327 6 352 337 342 353 329 282 33 26 348 289 255 332 299 277 215 239 216 233 307 235 348
359 357 356 355 353 353 354 350 349 349 348 353 344 332 309 336 333 347 53 12 0 12 350 343 25 325 323 330 333 348 315 341 349 20 2 321 308 274 314 34 296 239 218 250 223 229 246
1 359 358 359 357 355 356 356 355 353 351 355 5 14 326 345 8 41 60 334 328 343 348 336 312 306 318 316 253 303 270 309 14 335 338 311 318 318 303 320 293 345 310 229 240 224 231
5 1 359 0 2 2 1 2 4 359 354 8 1 19 338 353 43 8 13 318 327 333 328 318 333 273 300 305 285 302 261 259 349 316 331 335 285 292 294 267 281 298 19 344 332 348 238
8 11 8 6 5 5 6 7 5 3 6 348 345 277 334 360 35 358 309 306 277 331 327 326 311 327 313 302 294 270 279 252 306 343 328 309 332 324 306 19 59 39 307 325 276 227 319
15 17 15 10 9 8 9 5 2 4 0 355 42 354 325 22 24 38 329 288 330 310 292 331 295 311 338 318 283 271 288 301 333 290 295 316 225 234 278 278 290 297 315 345 353 354 345
15 16 13 9 9 8 4 5 4 357 355 347 37 1 106 328 336 321 267 274 332 337 250 323 317 337 321 307 308 224 315 312 298 290 46 112 248 270 285 286 286 327 35 43 63 5 49
17 15 13 10 11 7 4 5 4 359 360 29 103 46 337 286 279 306 319 295 317 336 317 303 322 312 316 296 288 298 313 299 260 296 212 263 277 259 280 282 256 85 12 79 52 6 48
16 12 10 9 5 3 5 4 359 359 9 349 356 269 183 255 254 43 252 342 311 322 291 316 301 297 312 294 273 278 271 266 254 269 276 241 209 175 262 252 139 34 359 71 73 37 19
9 5 8 5 357 356 355 353 355 355 352 315 293 207 255 269 193 236 280 306 305 306 289 300 301 138 291 309 301 277 268 276 256 271 266 238 215 225 261 216 126 108 41 73 78 39 24
3 357 355 355 355 359 2 359 352 356 343 328 289 252 236 264 233 286 261 283 285 256 260 280 285 283 318 321 345 343 327 15 22 182 340 286 205 250 269 49 118 66 28 356 5 42 16
4 1 356 352 353 357 354 352 352 350 350 337 296 274 208 263 240 267 303 253 300 300 320 258 339 312 325 282 345 256 285 258 310 340 6 19 23 97 13 115 152 15 329 312 296 70 12
1 0 8 4 348 356 356 348 345 345 348 337 295 294 259 255 257 180 242 297 298 332 278 331 333 337 9 308 312 278 293 259 34 32 336 355 355 38 351 95 46 332 320 304 132 298 13
353 352 351 347 348 343 338 338 335 334 342 345 295 307 264 255 320 29 28 20 350 11 351 310 341 359 341 15 14 320 342 16 82 35 6 50 345 14 331 65 347 343 21 62 319 13 13
355 352 346 342 338 331 326 327 328 332 336 343 302 333 343 31 55 85 54 38 30 327 305 330 286 348 324 335 3 321 8 5 13 75 12 41 360 13 38 99 223 359 49 37 24 11 9